Tracking 19246 objects as of 20-Aug-2018
HD Live streaming from Space Station
objects crossing your sky now

FENGYUN 1C DEB

Track FENGYUN 1C DEB now!
10-day predictions


NORAD ID: 31012
Int'l Code: 1999-025BDE
Perigee: 751.8 km
Apogee: 874.3 km
Inclination: 99.0 °
Period: 101.0 minutes
Semi major axis: 7184 km
RCS: 0.0146 m2 (small)
Launch date: May 10, 1999
Source: People's Republic of China (PRC)
Launch site: Taiyaun Space Center, China (TSC)

Note: This is SATELLITE DEBRIS
aabbcc
Your satellite tracking list
Your tracking list is empty




NASA's NSSDC Master Catalog

Two Line Element Set (TLE):
1 31012U 99025BDE 18231.36354418 +.00000032 +00000-0 +31923-4 0  9998
2 31012 098.9939 010.8957 0085244 038.9605 014.0565 14.25761742596516
Source of the keplerian elements: AFSPC